When you browse on this site, cookies collect data to enhance your experience and personalize the content and advertising you see.
Visit our Privacy Policy to learn more. By continuing to use the site, you agree to this use of cookies and data.
  • In Österreich
  • Länderverzeichnis
  • Für 7 Tage
  • Wassertemperatur
  • Wetterkarte
  • News
  • Widgets
  • user-avatar
    Anmelden

    Stündliche Wetter Gedshon

    Heute, 4 April, Samstag

    Zeit Temperatur Niederschläge Wind Luftdruck Luftfeuchtigkeit
    00:00 +5°C° 0 mm 2 m/S 749 mmHg 74%
    01:00 +5°C° 0 mm 2 m/S 749 mmHg 75%
    02:00 +4°C° 0 mm 2 m/S 749 mmHg 78%
    03:00 +4°C° 0 mm 2 m/S 748 mmHg 77%
    04:00 +4°C° 0 mm 2 m/S 748 mmHg 77%
    05:00 +4°C° 0 mm 2 m/S 748 mmHg 76%
    06:00 +5°C° 0 mm 3 m/S 748 mmHg 73%
    07:00 +7°C° 0 mm 4 m/S 748 mmHg 71%
    08:00 +9°C° 0 mm 5 m/S 748 mmHg 68%
    09:00 +10°C° 0 mm 5 m/S 748 mmHg 56%
    10:00 +11°C° 0 mm 6 m/S 748 mmHg 45%
    11:00 +13°C° 0 mm 6 m/S 748 mmHg 33%
    12:00 +11°C° 0 mm 6 m/S 748 mmHg 30%
    13:00 +11°C° 0 mm 6 m/S 748 mmHg 28%
    14:00 +12°C° 0 mm 4 m/S 747 mmHg 26%
    15:00 +9°C° 0 mm 5 m/S 748 mmHg 27%
    16:00 +8°C° 0 mm 5 m/S 748 mmHg 29%
    17:00 +7°C° 0 mm 5 m/S 749 mmHg 30%
    18:00 +6°C° 0 mm 4 m/S 749 mmHg 32%
    19:00 +5°C° 0 mm 4 m/S 750 mmHg 34%
    20:00 +3°C° 0 mm 3 m/S 750 mmHg 44%
    21:00 +3°C° 0 mm 3 m/S 750 mmHg 45%
    22:00 +3°C° 0 mm 2 m/S 751 mmHg 46%
    23:00 +3°C° 0 mm 2 m/S 751 mmHg 47%

    Morgen, 5 April, Sonntag

    Zeit Temperatur Niederschläge Wind Luftdruck Luftfeuchtigkeit
    00:00 +2°C° 0 mm 2 m/S 751 mmHg 45%
    01:00 +3°C° 0 mm 1 m/S 751 mmHg 43%
    02:00 +2°C° 0 mm 1 m/S 750 mmHg 41%
    03:00 +2°C° 0 mm 1 m/S 751 mmHg 42%
    04:00 +1°C° 0 mm 1 m/S 751 mmHg 44%
    05:00 0°C° 0 mm 1 m/S 751 mmHg 46%
    06:00 +2°C° 0 mm 1 m/S 751 mmHg 41%
    07:00 +4°C° 0 mm 1 m/S 751 mmHg 36%
    08:00 +7°C° 0 mm 1 m/S 751 mmHg 32%
    09:00 +7°C° 0 mm 2 m/S 751 mmHg 29%
    10:00 +9°C° 0 mm 2 m/S 751 mmHg 27%
    11:00 +10°C° 0 mm 3 m/S 751 mmHg 24%
    12:00 +11°C° 0 mm 3 m/S 751 mmHg 24%
    13:00 +11°C° 0 mm 4 m/S 750 mmHg 25%
    14:00 +12°C° 0 mm 4 m/S 750 mmHg 25%
    15:00 +11°C° 0 mm 4 m/S 750 mmHg 28%
    16:00 +10°C° 0 mm 4 m/S 750 mmHg 31%
    17:00 +9°C° 0 mm 3 m/S 750 mmHg 34%
    18:00 +7°C° 0 mm 3 m/S 750 mmHg 41%
    19:00 +6°C° 0 mm 2 m/S 750 mmHg 48%
    20:00 +5°C° 0 mm 1 m/S 751 mmHg 55%
    21:00 +5°C° 0 mm 1 m/S 751 mmHg 58%
    22:00 +4°C° 0 mm 1 m/S 751 mmHg 60%
    23:00 +4°C° 0 mm 1 m/S 751 mmHg 63%

    übermorgen, 6 April, Montag

    Zeit Temperatur Niederschläge Wind Luftdruck Luftfeuchtigkeit
    00:00 +3°C° 0 mm 1 m/S 751 mmHg 64%
    01:00 +3°C° 0 mm 1 m/S 751 mmHg 65%
    02:00 +3°C° 0 mm 1 m/S 751 mmHg 66%
    03:00 +2°C° 0 mm 1 m/S 751 mmHg 67%
    04:00 +2°C° 0 mm 1 m/S 751 mmHg 67%
    05:00 +1°C° 0 mm 0 m/S 751 mmHg 68%
    06:00 +4°C° 0 mm 1 m/S 751 mmHg 59%
    07:00 +7°C° 0 mm 1 m/S 751 mmHg 50%
    08:00 +9°C° 0 mm 1 m/S 751 mmHg 42%
    09:00 +11°C° 0 mm 1 m/S 751 mmHg 37%
    10:00 +13°C° 0 mm 2 m/S 751 mmHg 32%
    11:00 +14°C° 0 mm 2 m/S 751 mmHg 27%
    12:00 +14°C° 0 mm 3 m/S 750 mmHg 28%
    13:00 +14°C° 0 mm 3 m/S 749 mmHg 28%
    14:00 +15°C° 0 mm 4 m/S 749 mmHg 29%
    15:00 +14°C° 0 mm 4 m/S 749 mmHg 33%
    16:00 +12°C° 0 mm 3 m/S 749 mmHg 36%
    17:00 +11°C° 0 mm 3 m/S 748 mmHg 40%
    18:00 +10°C° 0 mm 2 m/S 749 mmHg 44%
    19:00 +8°C° 0 mm 2 m/S 749 mmHg 49%
    20:00 +8°C° 0 mm 1 m/S 749 mmHg 54%
    21:00 +8°C° 0 mm 1 m/S 749 mmHg 56%
    22:00 +7°C° 0 mm 1 m/S 749 mmHg 58%
    23:00 +7°C° 0 mm 1 m/S 749 mmHg 60%

    7 April, Dienstag

    Zeit Temperatur Niederschläge Wind Luftdruck Luftfeuchtigkeit
    00:00 +7°C° 0 mm 1 m/S 749 mmHg 63%
    01:00 +6°C° 0 mm 1 m/S 748 mmHg 66%
    02:00 +6°C° 0 mm 1 m/S 748 mmHg 70%
    03:00 +5°C° 0 mm 1 m/S 748 mmHg 72%
    04:00 +5°C° 0 mm 1 m/S 748 mmHg 74%
    05:00 +5°C° 0 mm 1 m/S 748 mmHg 77%
    06:00 +6°C° 0 mm 2 m/S 748 mmHg 70%
    07:00 +8°C° 0 mm 3 m/S 747 mmHg 63%
    08:00 +10°C° 0 mm 3 m/S 747 mmHg 57%
    09:00 +12°C° 0 mm 3 m/S 747 mmHg 53%
    10:00 +13°C° 0 mm 4 m/S 747 mmHg 50%
    11:00 +15°C° 0 mm 4 m/S 746 mmHg 46%
    12:00 +16°C° 0 mm 5 m/S 746 mmHg 42%
    13:00 +17°C° 0 mm 5 m/S 746 mmHg 38%
    14:00 +17°C° 0 mm 5 m/S 746 mmHg 35%
    15:00 +16°C° 0 mm 5 m/S 746 mmHg 35%
    16:00 +15°C° 0 mm 5 m/S 746 mmHg 36%
    17:00 +13°C° 0 mm 4 m/S 746 mmHg 36%
    18:00 +11°C° 0 mm 4 m/S 746 mmHg 41%
    19:00 +9°C° 0 mm 3 m/S 747 mmHg 45%
    20:00 +7°C° 0 mm 2 m/S 747 mmHg 49%
    21:00 +7°C° 0 mm 2 m/S 747 mmHg 52%
    22:00 +6°C° 0 mm 2 m/S 748 mmHg 55%
    23:00 +5°C° 0 mm 2 m/S 748 mmHg 58%

    8 April, Mittwoch

    Zeit Temperatur Niederschläge Wind Luftdruck Luftfeuchtigkeit
    00:00 +6°C° 0 mm 1 m/S 748 mmHg 59%
    01:00 +5°C° 0 mm 1 m/S 748 mmHg 60%
    02:00 +5°C° 0 mm 1 m/S 748 mmHg 60%
    03:00 +4°C° 0 mm 1 m/S 748 mmHg 63%
    04:00 +4°C° 0 mm 1 m/S 748 mmHg 65%
    05:00 +3°C° 0 mm 1 m/S 748 mmHg 67%
    06:00 +5°C° 0 mm 2 m/S 748 mmHg 58%
    07:00 +7°C° 0 mm 3 m/S 749 mmHg 48%
    08:00 +9°C° 0 mm 3 m/S 749 mmHg 39%
    09:00 +10°C° 0 mm 4 m/S 749 mmHg 33%
    10:00 +10°C° 0 mm 5 m/S 749 mmHg 28%
    11:00 +11°C° 0 mm 6 m/S 749 mmHg 22%
    12:00 +11°C° 0 mm 6 m/S 749 mmHg 22%
    13:00 +13°C° 0 mm 6 m/S 749 mmHg 22%
    14:00 +13°C° 0 mm 6 m/S 748 mmHg 21%
    15:00 +11°C° 0 mm 6 m/S 749 mmHg 23%
    16:00 +10°C° 0 mm 5 m/S 749 mmHg 25%
    17:00 +9°C° 0 mm 5 m/S 749 mmHg 27%
    18:00 +8°C° 0 mm 4 m/S 750 mmHg 33%
    19:00 +7°C° 0 mm 3 m/S 750 mmHg 39%
    20:00 +6°C° 0 mm 2 m/S 751 mmHg 45%
    21:00 +5°C° 0 mm 2 m/S 751 mmHg 49%
    22:00 +4°C° 0 mm 2 m/S 751 mmHg 53%
    23:00 +5°C° 0 mm 1 m/S 751 mmHg 57%

    9 April, Donnerstag

    Zeit Temperatur Niederschläge Wind Luftdruck Luftfeuchtigkeit
    00:00 +4°C° 0 mm 1 m/S 751 mmHg 60%
    01:00 +4°C° 0 mm 1 m/S 751 mmHg 64%
    02:00 +4°C° 0 mm 1 m/S 751 mmHg 67%
    03:00 +3°C° 0 mm 1 m/S 751 mmHg 69%
    04:00 +3°C° 0 mm 1 m/S 752 mmHg 72%
    05:00 +3°C° 0 mm 1 m/S 752 mmHg 74%
    06:00 +5°C° 0 mm 1 m/S 752 mmHg 66%
    07:00 +8°C° 0 mm 1 m/S 753 mmHg 58%
    08:00 +10°C° 0 mm 1 m/S 753 mmHg 49%
    09:00 +10°C° 0 mm 2 m/S 753 mmHg 42%
    10:00 +13°C° 0 mm 2 m/S 753 mmHg 35%
    11:00 +14°C° 0 mm 3 m/S 753 mmHg 28%
    12:00 +14°C° 0 mm 3 m/S 752 mmHg 27%
    13:00 +14°C° 0 mm 4 m/S 752 mmHg 26%
    14:00 +15°C° 0 mm 4 m/S 752 mmHg 24%
    15:00 +14°C° 0 mm 4 m/S 752 mmHg 26%
    16:00 +13°C° 0 mm 4 m/S 752 mmHg 28%
    17:00 +12°C° 0 mm 3 m/S 753 mmHg 31%
    18:00 +10°C° 0 mm 2 m/S 753 mmHg 37%
    19:00 +8°C° 0 mm 2 m/S 754 mmHg 44%
    20:00 +7°C° 0 mm 1 m/S 754 mmHg 51%
    21:00 +6°C° 0 mm 1 m/S 754 mmHg 52%
    22:00 +5°C° 0 mm 0 m/S 755 mmHg 53%
    23:00 +4°C° 0 mm 0 m/S 755 mmHg 55%
    Mehr zeigen